Home > Weather > Sapporo > Past weeks

Flag for Japan Past Weather in Sapporo, Japan — Yesterday and Last 2 Weeks

Now
69 °F

Sprinkles. Overcast.


Feels Like: 69 °F
Forecast: 67 / 74 °F
Wind: 20 mph from South

Location: Sapporo

Current Time: Jul 27, 2016 at 10:27:05 AM

Latest Report: Jul 27, 2016 at 9:00 AM


Visibility: 5 mi

Pressure: 29.85 "Hg

Humidity: 86%

Dew Point: 65 °F

Location of SapporoLocation

Past Weather in Sapporo — Graph

°F

Sapporo Temperature Yesterday

Maximum temperature yesterday: 79 °F (at 12:00 PM)
Minimum temperature yesterday: 64 °F (at 4:00 AM)
Average temperature yesterday: 72 °F

High & Low Weather Summary for the Past Weeks

 TemperatureHumidityPressure
High82 °F (Jul 13, 1:00 PM)94% (Jul 19, 2:00 AM)30.06 "Hg (Jul 19, 2:00 AM)
Low63 °F (Jul 23, 5:00 AM)45% (Jul 21, 12:00 PM)29.50 "Hg (Jul 14, 1:00 PM)
Average70 °F73%29.83 "Hg
* Reported Jul 12 9:00 AM — Jul 27 9:00 AM, Sapporo, Weather by CustomWeather, © 2016

Note: Actual official high and low records may vary slightly from our data, if they occured in-between our weather recording intervals... More about our weather records

Advertising

Sapporo Weather History for the Previous 24 Hours

Scroll right to see more
 ConditionsComfort  
Time TempWeatherWind HumidityBarometerVisibility
9:00 AM
Wed, Jul 27
69 °FSprinkles. Overcast.20 mph86%29.85 "Hg5 mi
8:00 AM69 °FMild.16 mph87%29.85 "HgN/A
7:00 AM69 °FMild.18 mph88%29.86 "HgN/A
6:00 AM68 °FRain showers. Overcast.18 mph90%29.85 "Hg3 mi
5:00 AM68 °FMild.13 mph89%29.85 "HgN/A
4:00 AM69 °FMild.15 mph84%29.85 "HgN/A
3:00 AM69 °FSprinkles. Overcast.16 mph86%29.86 "Hg3 mi
2:00 AM71 °FMild.17 mph76%29.85 "HgN/A
1:00 AM70 °FMild.14 mph77%29.86 "HgN/A
12:00 AM70 °FMild.15 mph80%29.86 "HgN/A
11:00 PM
Tue, Jul 26
70 °FMild.12 mph80%29.86 "HgN/A
10:00 PM70 °FMild.9 mph78%29.86 "HgN/A
9:00 PM71 °FOvercast.12 mph75%29.87 "Hg12 mi
8:00 PM71 °FMild.10 mph73%29.87 "HgN/A
7:00 PM71 °FMild.9 mph73%29.87 "HgN/A
6:00 PM73 °FOvercast.10 mph71%29.86 "Hg12 mi
5:00 PM74 °FMild.13 mph68%29.85 "HgN/A
4:00 PM77 °FMild.20 mph61%29.85 "HgN/A
3:00 PM79 °FOvercast.18 mph58%29.84 "Hg19 mi
2:00 PM79 °FWarm.14 mph58%29.84 "HgN/A
1:00 PM78 °FWarm.17 mph60%29.84 "HgN/A
12:00 PM79 °FPartly sunny.24 mph57%29.85 "Hg19 mi
11:00 AM79 °FWarm.13 mph57%29.85 "HgN/A
10:00 AM78 °FWarm.12 mph59%29.85 "HgN/A
Weather by CustomWeather, © 2016

See weather overviewHow to use our weather pages